Time,TemperatureF,DewpointF,PressureIn,WindDirection,WindDirectionDegrees,WindSpeedMPH,WindSpeedGustMPH,Humidity,HourlyPrecipIn,Conditions,Clouds,dailyrainin,SolarRadiationWatts/m^2,SoftwareType,DateUTC
2013-10-26 00:03:00,60.0,52.0,-100.00,SE,135,4.0,9.0,76,0.00,,,0.00,0.000000,,2013-10-26 05:03:00,
2013-10-26 00:43:00,60.0,54.0,-100.00,ESE,112,4.0,6.0,80,0.00,,,0.00,0.000000,,2013-10-26 05:43:00,
2013-10-26 00:52:00,60.0,54.0,-100.00,ESE,112,4.0,6.0,80,0.00,,,0.00,0.000000,,2013-10-26 05:52:00,
2013-10-26 01:02:00,60.0,54.0,-100.00,ESE,112,4.0,6.0,80,0.00,,,0.00,0.000000,,2013-10-26 06:02:00,
2013-10-26 01:42:00,59.0,54.0,-100.00,East,98,3.0,6.0,84,0.00,,,0.00,0.000000,,2013-10-26 06:42:00,
2013-10-26 01:52:00,59.0,54.0,-100.00,East,98,3.0,6.0,84,0.00,,,0.00,0.000000,,2013-10-26 06:52:00,
2013-10-26 02:02:00,59.0,54.0,-100.00,East,98,3.0,6.0,84,0.00,,,0.00,0.000000,,2013-10-26 07:02:00,
2013-10-26 02:42:00,59.0,55.0,-100.00,East,100,5.0,7.0,88,0.00,,,0.00,0.000000,,2013-10-26 07:42:00,
2013-10-26 02:52:00,59.0,55.0,-100.00,East,100,5.0,7.0,88,0.00,,,0.00,0.000000,,2013-10-26 07:52:00,
2013-10-26 03:02:00,59.0,55.0,-100.00,East,100,5.0,7.0,88,0.00,,,0.00,0.000000,,2013-10-26 08:02:00,
2013-10-26 03:42:00,61.0,57.0,-100.00,ESE,113,6.0,9.0,88,0.00,,,0.00,0.000000,,2013-10-26 08:42:00,
2013-10-26 03:52:00,61.0,57.0,-100.00,ESE,113,6.0,9.0,88,0.00,,,0.00,0.000000,,2013-10-26 08:52:00,
2013-10-26 04:02:00,61.0,57.0,-100.00,ESE,113,6.0,9.0,88,0.00,,,0.00,0.000000,,2013-10-26 09:02:00,
2013-10-26 04:43:00,60.0,57.0,-100.00,ESE,118,6.0,11.0,89,0.00,,,0.00,0.000000,,2013-10-26 09:43:00,
2013-10-26 04:53:00,60.0,57.0,-100.00,ESE,118,6.0,11.0,89,0.00,,,0.00,0.000000,,2013-10-26 09:53:00,
2013-10-26 05:03:00,60.0,57.0,-100.00,ESE,118,6.0,11.0,89,0.00,,,0.00,0.000000,,2013-10-26 10:03:00,
2013-10-26 05:42:00,59.0,57.0,-100.00,SE,124,5.0,8.0,92,0.00,,,0.00,0.000000,,2013-10-26 10:42:00,
2013-10-26 05:53:00,59.0,57.0,-100.00,SE,124,5.0,8.0,92,0.00,,,0.00,0.000000,,2013-10-26 10:53:00,
2013-10-26 06:03:00,59.0,57.0,-100.00,SE,124,5.0,8.0,92,0.00,,,0.00,0.000000,,2013-10-26 11:03:00,
2013-10-26 06:42:00,60.0,58.0,-100.00,SE,128,5.0,8.0,94,0.00,,,0.00,0.000000,,2013-10-26 11:42:00,
2013-10-26 06:52:00,60.0,58.0,-100.00,SE,128,5.0,8.0,94,0.00,,,0.00,0.000000,,2013-10-26 11:52:00,
2013-10-26 07:01:00,60.0,58.0,-100.00,SE,128,5.0,8.0,94,0.00,,,0.00,0.000000,,2013-10-26 12:01:00,
2013-10-26 07:42:00,61.0,59.0,-100.00,ESE,118,3.0,7.0,94,0.00,,,0.00,0.000000,,2013-10-26 12:42:00,
2013-10-26 07:52:00,61.0,59.0,-100.00,ESE,118,3.0,7.0,94,0.00,,,0.00,0.000000,,2013-10-26 12:52:00,
2013-10-26 08:01:00,61.0,59.0,-100.00,ESE,118,3.0,7.0,94,0.00,,,0.00,0.000000,,2013-10-26 13:01:00,
2013-10-26 08:42:00,62.0,60.0,-100.00,East,84,5.0,7.0,92,0.00,,,0.00,1.000000,,2013-10-26 13:42:00,
2013-10-26 08:52:00,62.0,60.0,-100.00,East,84,5.0,7.0,92,0.00,,,0.00,1.000000,,2013-10-26 13:52:00,
2013-10-26 09:01:00,62.0,60.0,-100.00,East,84,5.0,7.0,92,0.00,,,0.00,1.000000,,2013-10-26 14:01:00,
2013-10-26 09:42:00,63.0,60.0,-100.00,East,98,7.0,10.0,91,0.00,,,0.00,22.000000,,2013-10-26 14:42:00,
2013-10-26 09:52:00,63.0,60.0,-100.00,East,98,7.0,10.0,91,0.00,,,0.00,22.000000,,2013-10-26 14:52:00,
2013-10-26 10:02:00,63.0,60.0,-100.00,East,98,7.0,10.0,91,0.00,,,0.00,22.000000,,2013-10-26 15:02:00,
2013-10-26 10:44:00,67.0,63.0,-100.00,SE,129,9.0,12.0,86,0.00,,,0.00,160.000000,,2013-10-26 15:44:00,
2013-10-26 10:55:00,67.0,63.0,-100.00,SE,129,9.0,12.0,86,0.00,,,0.00,160.000000,,2013-10-26 15:55:00,
2013-10-26 11:05:00,67.0,63.0,-100.00,SE,129,9.0,12.0,86,0.00,,,0.00,160.000000,,2013-10-26 16:05:00,
2013-10-26 11:44:00,71.0,63.0,-100.00,SSE,157,11.0,17.0,75,0.00,,,0.00,326.000000,,2013-10-26 16:44:00,
2013-10-26 11:54:00,71.0,63.0,-100.00,SSE,157,11.0,17.0,75,0.00,,,0.00,326.000000,,2013-10-26 16:54:00,
2013-10-26 12:03:00,71.0,63.0,-100.00,SSE,157,11.0,17.0,75,0.00,,,0.00,326.000000,,2013-10-26 17:03:00,
2013-10-26 12:43:00,73.0,60.0,-100.00,South,169,11.0,17.0,64,0.00,,,0.00,461.000000,,2013-10-26 17:43:00,
2013-10-26 12:52:00,73.0,60.0,-100.00,South,169,11.0,17.0,64,0.00,,,0.00,461.000000,,2013-10-26 17:52:00,
2013-10-26 13:02:00,73.0,60.0,-100.00,South,169,11.0,17.0,64,0.00,,,0.00,461.000000,,2013-10-26 18:02:00,
2013-10-26 13:42:00,77.0,61.0,-100.00,SSW,192,11.0,19.0,58,0.00,,,0.00,519.000000,,2013-10-26 18:42:00,
2013-10-26 13:52:00,77.0,61.0,-100.00,SSW,192,11.0,19.0,58,0.00,,,0.00,519.000000,,2013-10-26 18:52:00,
2013-10-26 14:01:00,77.0,61.0,-100.00,SSW,192,11.0,19.0,58,0.00,,,0.00,519.000000,,2013-10-26 19:01:00,
2013-10-26 14:42:00,78.0,62.0,-100.00,SSW,200,12.0,17.0,57,0.00,,,0.00,480.000000,,2013-10-26 19:42:00,
2013-10-26 14:52:00,78.0,62.0,-100.00,SSW,200,12.0,17.0,57,0.00,,,0.00,480.000000,,2013-10-26 19:52:00,
2013-10-26 15:02:00,78.0,62.0,-100.00,SSW,200,12.0,17.0,57,0.00,,,0.00,480.000000,,2013-10-26 20:02:00,
2013-10-26 15:43:00,79.0,59.0,-100.00,SSW,202,9.0,19.0,51,0.00,,,0.00,666.000000,,2013-10-26 20:43:00,
2013-10-26 15:52:00,79.0,59.0,-100.00,SSW,202,9.0,19.0,51,0.00,,,0.00,666.000000,,2013-10-26 20:52:00,
2013-10-26 16:02:00,79.0,59.0,-100.00,SSW,202,9.0,19.0,51,0.00,,,0.00,666.000000,,2013-10-26 21:02:00,
2013-10-26 16:43:00,80.0,60.0,-100.00,SW,216,15.0,22.0,51,0.00,,,0.00,563.000000,,2013-10-26 21:43:00,
2013-10-26 16:55:00,80.0,60.0,-100.00,SW,216,15.0,22.0,51,0.00,,,0.00,563.000000,,2013-10-26 21:55:00,
2013-10-26 17:03:00,80.0,60.0,-100.00,SW,216,15.0,22.0,51,0.00,,,0.00,563.000000,,2013-10-26 22:03:00,
2013-10-26 17:44:00,80.0,61.0,-100.00,SW,215,13.0,18.0,52,0.00,,,0.00,312.000000,,2013-10-26 22:44:00,
2013-10-26 17:54:00,80.0,61.0,-100.00,SW,215,13.0,18.0,52,0.00,,,0.00,312.000000,,2013-10-26 22:54:00,
2013-10-26 18:03:00,80.0,61.0,-100.00,SW,215,13.0,18.0,52,0.00,,,0.00,312.000000,,2013-10-26 23:03:00,
2013-10-26 18:42:00,77.0,57.0,-100.00,SSW,211,11.0,16.0,51,0.00,,,0.00,155.000000,,2013-10-26 23:42:00,
2013-10-26 18:52:00,77.0,57.0,-100.00,SSW,211,11.0,16.0,51,0.00,,,0.00,155.000000,,2013-10-26 23:52:00,
2013-10-26 19:02:00,77.0,57.0,-100.00,SSW,211,11.0,16.0,51,0.00,,,0.00,155.000000,,2013-10-27 00:02:00,
2013-10-26 19:42:00,74.0,58.0,-100.00,SW,214,8.0,13.0,58,0.00,,,0.00,32.000000,,2013-10-27 00:42:00,
2013-10-26 19:52:00,74.0,58.0,-100.00,SW,214,8.0,13.0,58,0.00,,,0.00,32.000000,,2013-10-27 00:52:00,
2013-10-26 20:01:00,74.0,58.0,-100.00,SW,214,8.0,13.0,58,0.00,,,0.00,32.000000,,2013-10-27 01:01:00,
2013-10-26 20:42:00,72.0,60.0,-100.00,SW,216,9.0,12.0,67,0.00,,,0.00,0.000000,,2013-10-27 01:42:00,
2013-10-26 20:52:00,72.0,60.0,-100.00,SW,216,9.0,12.0,67,0.00,,,0.00,0.000000,,2013-10-27 01:52:00,
2013-10-26 21:02:00,72.0,60.0,-100.00,SW,216,9.0,12.0,67,0.00,,,0.00,0.000000,,2013-10-27 02:02:00,
2013-10-26 21:42:00,69.0,60.0,-100.00,SW,226,5.0,11.0,72,0.00,,,0.00,0.000000,,2013-10-27 02:42:00,
2013-10-26 21:52:00,69.0,60.0,-100.00,SW,226,5.0,11.0,72,0.00,,,0.00,0.000000,,2013-10-27 02:52:00,
2013-10-26 22:02:00,69.0,60.0,-100.00,SW,226,5.0,11.0,72,0.00,,,0.00,0.000000,,2013-10-27 03:02:00,
2013-10-26 22:45:00,67.0,59.0,-100.00,SSW,205,3.0,6.0,76,0.00,,,0.00,0.000000,,2013-10-27 03:45:00,
2013-10-26 22:55:00,67.0,59.0,-100.00,SSW,205,3.0,6.0,76,0.00,,,0.00,0.000000,,2013-10-27 03:55:00,
2013-10-26 23:02:00,-999.0,-99.9,-100.00,SSW,205,3.0,6.0,-999,-99.99,,,-99.99,0.000000,,2013-10-27 04:02:00,
2013-10-26 23:44:00,64.0,59.0,-100.00,South,185,4.0,5.0,84,0.00,,,0.00,0.000000,,2013-10-27 04:44:00,
2013-10-26 23:54:00,64.0,59.0,-100.00,South,185,4.0,5.0,84,0.00,,,0.00,0.000000,,2013-10-27 04:54:00,